Location: Tucson
(32.2217°N, 110.9265°W)
Time: 18:20:00
(UTC-07:00)

N. Korean satellite - Visible Passes

Search period start: 17 February 2018 00:00
Search period end: 27 February 2018 00:00
Orbit: 459 x 514 km, 97.2° (Epoch: 17 February)

Date Brightness Start Highest point End Pass type
(mag) Time Alt. Az. Time Alt. Az. Time Alt. Az.
17 Feb 9.7 06:17:28 10° NE 06:20:16 21° E 06:23:05 10° SE visible
19 Feb 9.7 19:08:37 10° SW 19:11:07 19° W 19:13:38 10° NW visible
20 Feb 8.0 18:44:03 10° S 18:47:18 42° W 18:50:36 10° NNW visible
21 Feb 9.8 06:16:02 10° NE 06:18:49 20° E 06:21:37 10° SE visible
23 Feb 9.6 19:07:02 10° SW 19:09:36 20° W 19:12:12 10° NW visible
24 Feb 7.9 18:42:29 10° S 18:45:46 44° W 18:49:07 10° NNW visible
25 Feb 9.9 06:14:34 10° NE 06:17:20 20° E 06:20:06 10° SE visible
